DLH20E EDDF-EHAM

Flight info

Callsign DLH20E
Flight time 0h 49m
Altitude 24000
Route MARUN8M/25C MARUN Y152 ARPEG Z850 ABILU DCT NORKU
Aircraft A321/M-SDE3FGHIRWY/LB1

Departure

Time 2026-05-06 12:36
Airport Frankfurt Main Airport (EDDF)

Arrival

Time 2026-05-06 13:25
Airport Amsterdam Airport Schiphol (EHAM)
Time Latitude Longitude Altitude Speed Heading
2026-05-06 12:24 50.04738 8.56993 365 ft 0 kts 201°
2026-05-06 12:31 50.04730 8.56988 365 ft 1 kts 202°
2026-05-06 12:31 50.04714 8.56978 365 ft 7 kts 203°
2026-05-06 12:31 50.04644 8.56929 368 ft 12 kts 203°
2026-05-06 12:31 50.04562 8.56895 365 ft 12 kts 194°
2026-05-06 12:32 50.04473 8.56864 366 ft 14 kts 191°
2026-05-06 12:32 50.04381 8.56837 363 ft 14 kts 191°
2026-05-06 12:32 50.04291 8.56839 365 ft 13 kts 148°
2026-05-06 12:32 50.04290 8.56965 367 ft 13 kts 68°
2026-05-06 12:33 50.04324 8.57108 365 ft 15 kts 70°
2026-05-06 12:33 50.04363 8.57270 366 ft 17 kts 70°
2026-05-06 12:33 50.04406 8.57449 364 ft 19 kts 70°
2026-05-06 12:33 50.04452 8.57645 365 ft 20 kts 70°
2026-05-06 12:34 50.04502 8.57855 367 ft 21 kts 69°
2026-05-06 12:34 50.04556 8.58081 364 ft 23 kts 69°
2026-05-06 12:34 50.04613 8.58318 366 ft 24 kts 70°
2026-05-06 12:34 50.04652 8.58529 367 ft 16 kts 109°
2026-05-06 12:35 50.04558 8.58609 368 ft 15 kts 159°
2026-05-06 12:35 50.04479 8.58561 368 ft 14 kts 246°
2026-05-06 12:35 50.04451 8.58441 372 ft 14 kts 249°
2026-05-06 12:35 50.04340 8.57986 367 ft 92 kts 250°
2026-05-06 12:36 50.04017 8.56639 437 ft 164 kts 249°
2026-05-06 12:36 50.03591 8.54856 1201 ft 186 kts 248°
2026-05-06 12:36 50.03131 8.52919 2089 ft 191 kts 248°
2026-05-06 12:36 50.02672 8.50953 2840 ft 198 kts 248°
2026-05-06 12:37 50.01926 8.49162 3633 ft 202 kts 214°
2026-05-06 12:37 50.00636 8.48292 4483 ft 203 kts 197°
2026-05-06 12:37 49.99254 8.47796 5314 ft 206 kts 193°
2026-05-06 12:37 49.98321 8.47500 5845 ft 207 kts 194°
2026-05-06 12:38 49.96907 8.47026 6619 ft 210 kts 194°
2026-05-06 12:38 49.95441 8.46488 6789 ft 229 kts 196°
2026-05-06 12:38 49.93838 8.45857 6787 ft 242 kts 196°
2026-05-06 12:38 49.92209 8.45152 6777 ft 243 kts 202°
2026-05-06 12:39 49.90844 8.43684 6778 ft 241 kts 232°
2026-05-06 12:39 49.90192 8.41282 7136 ft 249 kts 263°
2026-05-06 12:39 49.90423 8.38635 8036 ft 254 kts 291°
2026-05-06 12:39 49.91530 8.36487 8868 ft 264 kts 323°
2026-05-06 12:40 49.93236 8.35184 9361 ft 284 kts 334°
2026-05-06 12:40 49.95089 8.33971 10002 ft 293 kts 335°
2026-05-06 12:40 49.96813 8.32863 10299 ft 312 kts 335°
2026-05-06 12:40 49.98888 8.31526 10490 ft 335 kts 335°
2026-05-06 12:41 50.01082 8.30104 10644 ft 357 kts 335°
2026-05-06 12:41 50.03507 8.28953 11046 ft 372 kts 349°
2026-05-06 12:41 50.06123 8.28837 11698 ft 381 kts
2026-05-06 12:41 50.08718 8.29790 12358 ft 386 kts 17°
2026-05-06 12:42 50.11277 8.31116 13029 ft 390 kts 17°
2026-05-06 12:42 50.13857 8.32468 13674 ft 393 kts 17°
2026-05-06 12:42 50.16463 8.33837 14252 ft 397 kts 17°
2026-05-06 12:42 50.19092 8.35224 14844 ft 401 kts 18°
2026-05-06 12:43 50.21742 8.36624 15430 ft 404 kts 18°
2026-05-06 12:43 50.24420 8.38038 16013 ft 408 kts 18°
2026-05-06 12:43 50.27124 8.39466 16572 ft 412 kts 18°
2026-05-06 12:43 50.29850 8.40910 17108 ft 415 kts 18°
2026-05-06 12:44 50.32596 8.42384 17634 ft 420 kts 18°
2026-05-06 12:44 50.35370 8.43892 18132 ft 424 kts 18°
2026-05-06 12:44 50.38170 8.45425 18581 ft 427 kts 18°
2026-05-06 12:44 50.40990 8.46973 19056 ft 431 kts 18°
2026-05-06 12:45 50.43825 8.48530 19529 ft 434 kts 18°
2026-05-06 12:45 50.46690 8.50102 20023 ft 438 kts 18°
2026-05-06 12:45 50.52483 8.53070 20928 ft 444 kts 15°
2026-05-06 12:46 50.55453 8.54470 21393 ft 447 kts 14°
2026-05-06 12:46 50.58449 8.55854 21861 ft 450 kts 14°
2026-05-06 12:46 50.61470 8.57252 22324 ft 453 kts 14°
2026-05-06 12:46 50.64503 8.58677 22788 ft 457 kts 14°
2026-05-06 12:47 50.67551 8.60135 23232 ft 460 kts 15°
2026-05-06 12:47 50.70621 8.61619 23611 ft 463 kts 15°
2026-05-06 12:47 50.73704 8.63102 23740 ft 464 kts 13°
2026-05-06 12:47 50.76886 8.63776 23771 ft 462 kts 354°
2026-05-06 12:48 50.80021 8.62894 23768 ft 456 kts 340°
2026-05-06 12:48 50.82960 8.61076 23765 ft 453 kts 331°
2026-05-06 12:48 50.85703 8.58655 23768 ft 449 kts 323°
2026-05-06 12:48 50.88160 8.55648 23769 ft 445 kts 314°
2026-05-06 12:49 50.90268 8.52086 23770 ft 443 kts 308°
2026-05-06 12:49 50.92291 8.48393 23774 ft 443 kts 308°
2026-05-06 12:49 50.94257 8.44716 23772 ft 444 kts 308°
2026-05-06 12:49 50.96236 8.40961 23768 ft 444 kts 308°
2026-05-06 12:50 50.98209 8.37196 23769 ft 444 kts 308°
2026-05-06 12:50 51.00220 8.33483 23765 ft 444 kts 312°
2026-05-06 12:50 51.02525 8.30207 23761 ft 446 kts 321°
2026-05-06 12:50 51.05134 8.27524 23756 ft 447 kts 330°
2026-05-06 12:51 51.07855 8.25128 23758 ft 448 kts 330°
2026-05-06 12:51 51.10576 8.22717 23761 ft 448 kts 330°
2026-05-06 12:51 51.13298 8.20294 23767 ft 448 kts 330°
2026-05-06 12:51 51.16022 8.17862 23765 ft 448 kts 330°
2026-05-06 12:52 51.18740 8.15428 23771 ft 449 kts 329°
2026-05-06 12:52 51.21461 8.12988 23774 ft 449 kts 329°
2026-05-06 12:52 51.24184 8.10546 23784 ft 449 kts 330°
2026-05-06 12:52 51.26908 8.08103 23787 ft 449 kts 330°
2026-05-06 12:53 51.29627 8.05664 23792 ft 448 kts 330°
2026-05-06 12:53 51.32340 8.03230 23801 ft 447 kts 330°
2026-05-06 12:53 51.35016 8.00827 23810 ft 447 kts 329°
2026-05-06 12:53 51.37724 7.98383 23814 ft 446 kts 329°
2026-05-06 12:54 51.40417 7.95931 23822 ft 446 kts 328°
2026-05-06 12:54 51.42965 7.93106 23820 ft 445 kts 322°
2026-05-06 12:54 51.45450 7.90152 23824 ft 445 kts 322°
2026-05-06 12:54 51.47932 7.87193 23824 ft 445 kts 322°
2026-05-06 12:55 51.50415 7.84226 23827 ft 445 kts 322°
2026-05-06 12:55 51.52892 7.81263 23827 ft 445 kts 322°
2026-05-06 12:55 51.55375 7.78294 23828 ft 444 kts 322°
2026-05-06 12:55 51.57856 7.75328 23827 ft 444 kts 322°
2026-05-06 12:56 51.60340 7.72356 23828 ft 444 kts 322°
2026-05-06 12:56 51.62820 7.69384 23826 ft 445 kts 322°
2026-05-06 12:56 51.65300 7.66406 23825 ft 445 kts 322°
2026-05-06 12:56 51.67779 7.63422 23825 ft 444 kts 322°
2026-05-06 12:57 51.70250 7.60440 23822 ft 444 kts 322°
2026-05-06 12:57 51.72722 7.57455 23825 ft 444 kts 322°
2026-05-06 12:57 51.75163 7.54507 23828 ft 444 kts 322°
2026-05-06 12:57 51.77634 7.51519 23829 ft 444 kts 322°
2026-05-06 12:58 51.80101 7.48531 23831 ft 443 kts 322°
2026-05-06 12:58 51.82566 7.45542 23841 ft 444 kts 322°
2026-05-06 12:58 51.85032 7.42547 23847 ft 443 kts 322°
2026-05-06 12:58 51.87127 7.40002 23852 ft 442 kts 322°
2026-05-06 12:59 51.89600 7.36995 23856 ft 442 kts 322°
2026-05-06 12:59 51.92052 7.34007 23855 ft 441 kts 322°
2026-05-06 12:59 51.94507 7.31007 23859 ft 441 kts 322°
2026-05-06 12:59 51.96955 7.28010 23862 ft 441 kts 322°
2026-05-06 13:00 51.99403 7.25004 23852 ft 441 kts 322°
2026-05-06 13:00 52.01840 7.22005 23855 ft 440 kts 321°
2026-05-06 13:00 52.04283 7.18995 23854 ft 440 kts 321°
2026-05-06 13:00 52.06719 7.15992 23855 ft 440 kts 321°
2026-05-06 13:01 52.09164 7.12981 23861 ft 440 kts 322°
2026-05-06 13:01 52.11550 7.10044 23863 ft 440 kts 322°
2026-05-06 13:01 52.13960 7.07073 23861 ft 440 kts 321°
2026-05-06 13:01 52.16399 7.04057 23860 ft 440 kts 321°
2026-05-06 13:02 52.18835 7.01034 23866 ft 441 kts 321°
2026-05-06 13:02 52.21212 6.97889 23864 ft 440 kts 316°
2026-05-06 13:02 52.23290 6.94241 23866 ft 439 kts 308°
2026-05-06 13:02 52.25217 6.90372 23868 ft 439 kts 308°
2026-05-06 13:03 52.27147 6.86498 23873 ft 440 kts 308°
2026-05-06 13:03 52.29079 6.82619 23878 ft 441 kts 308°
2026-05-06 13:03 52.31014 6.78733 23870 ft 440 kts 308°
2026-05-06 13:03 52.32944 6.74856 23868 ft 440 kts 308°
2026-05-06 13:04 52.34875 6.70974 23869 ft 440 kts 308°
2026-05-06 13:04 52.36804 6.67091 23867 ft 440 kts 308°
2026-05-06 13:04 52.38735 6.63198 23869 ft 439 kts 308°
2026-05-06 13:04 52.40647 6.59338 23897 ft 435 kts 307°
2026-05-06 13:05 52.42548 6.55497 23890 ft 433 kts 308°
2026-05-06 13:05 52.44376 6.51582 23892 ft 432 kts 302°
2026-05-06 13:05 52.45812 6.47269 23895 ft 430 kts 292°
2026-05-06 13:05 52.46793 6.42650 23893 ft 429 kts 283°
2026-05-06 13:06 52.47313 6.37851 23890 ft 427 kts 274°
2026-05-06 13:06 52.47560 6.33058 23881 ft 428 kts 274°
2026-05-06 13:06 52.47806 6.28186 22986 ft 430 kts 274°
2026-05-06 13:06 52.48052 6.23242 21476 ft 440 kts 274°
2026-05-06 13:07 52.48298 6.18203 20195 ft 445 kts 273°
2026-05-06 13:07 52.48541 6.13157 19189 ft 443 kts 273°
2026-05-06 13:07 52.48778 6.08143 18245 ft 439 kts 273°
2026-05-06 13:07 52.49011 6.03169 17209 ft 435 kts 274°
2026-05-06 13:08 52.49242 5.98263 16262 ft 428 kts 274°
2026-05-06 13:08 52.49470 5.93429 15429 ft 421 kts 274°
2026-05-06 13:08 52.49690 5.88745 15187 ft 400 kts 274°
2026-05-06 13:08 52.49898 5.84323 15070 ft 376 kts 275°
2026-05-06 13:09 52.50087 5.80247 14749 ft 342 kts 275°
2026-05-06 13:09 52.50258 5.76523 14410 ft 315 kts 275°
2026-05-06 13:09 52.50417 5.73012 13743 ft 304 kts 275°
2026-05-06 13:09 52.50568 5.69590 12871 ft 298 kts 275°
2026-05-06 13:10 52.50716 5.66211 11969 ft 295 kts 275°
2026-05-06 13:10 52.50863 5.62869 11093 ft 293 kts 274°
2026-05-06 13:10 52.50735 5.59581 10697 ft 296 kts 256°
2026-05-06 13:10 52.49884 5.56362 10441 ft 320 kts 242°
2026-05-06 13:11 52.48776 5.53075 10194 ft 338 kts 241°
2026-05-06 13:11 52.47616 5.49707 9944 ft 332 kts 240°
2026-05-06 13:11 52.46491 5.46473 9761 ft 323 kts 240°
2026-05-06 13:11 52.45388 5.43316 9687 ft 323 kts 240°
2026-05-06 13:12 52.44275 5.40124 9514 ft 322 kts 240°
2026-05-06 13:12 52.43154 5.36913 8938 ft 331 kts 240°
2026-05-06 13:12 52.41993 5.33583 7877 ft 342 kts 240°
2026-05-06 13:12 52.40797 5.30155 6860 ft 351 kts 240°
2026-05-06 13:13 52.39571 5.26649 5834 ft 356 kts 240°
2026-05-06 13:13 52.38369 5.23210 4909 ft 338 kts 241°
2026-05-06 13:13 52.37250 5.20005 4561 ft 315 kts 241°
2026-05-06 13:13 52.36164 5.16903 4421 ft 315 kts 240°
2026-05-06 13:14 52.35081 5.13820 4382 ft 312 kts 241°
2026-05-06 13:14 52.33952 5.10779 4390 ft 312 kts 238°
2026-05-06 13:14 52.32787 5.07785 4391 ft 312 kts 238°
2026-05-06 13:14 52.31615 5.04793 4386 ft 312 kts 238°
2026-05-06 13:15 52.30443 5.01810 4361 ft 311 kts 238°
2026-05-06 13:15 52.29284 4.98864 3824 ft 307 kts 238°
2026-05-06 13:15 52.28128 4.95944 3176 ft 305 kts 238°
2026-05-06 13:15 52.26974 4.93046 2532 ft 303 kts 238°
2026-05-06 13:16 52.25832 4.90180 2092 ft 298 kts 238°
2026-05-06 13:16 52.24696 4.87318 1993 ft 301 kts 237°
2026-05-06 13:16 52.23557 4.84452 2005 ft 302 kts 238°
2026-05-06 13:16 52.22413 4.81578 2004 ft 302 kts 238°
2026-05-06 13:17 52.21263 4.78702 2007 ft 303 kts 238°
2026-05-06 13:17 52.20123 4.75866 2004 ft 304 kts 238°
2026-05-06 13:17 52.18968 4.72991 2003 ft 303 kts 238°
2026-05-06 13:17 52.17809 4.70126 2006 ft 302 kts 237°
2026-05-06 13:18 52.16653 4.67271 2005 ft 303 kts 238°
2026-05-06 13:18 52.15492 4.64419 2008 ft 301 kts 238°
2026-05-06 13:18 52.14334 4.61586 2005 ft 295 kts 238°
2026-05-06 13:18 52.13240 4.58884 2003 ft 276 kts 240°
2026-05-06 13:19 52.12650 4.56070 2002 ft 254 kts 270°
2026-05-06 13:19 52.12958 4.53417 2016 ft 228 kts 301°
2026-05-06 13:19 52.14007 4.51558 2017 ft 222 kts 328°
2026-05-06 13:19 52.15253 4.50246 2010 ft 208 kts 332°
2026-05-06 13:20 52.16478 4.49068 2003 ft 202 kts 338°
2026-05-06 13:20 52.17787 4.48770 2007 ft 180 kts 14°
2026-05-06 13:20 52.18840 4.49571 2003 ft 160 kts 34°
2026-05-06 13:20 52.19601 4.50807 2028 ft 152 kts 50°
2026-05-06 13:21 52.20216 4.52200 2011 ft 151 kts 55°
2026-05-06 13:21 52.20816 4.53569 2006 ft 146 kts 44°
2026-05-06 13:21 52.21473 4.54814 2010 ft 145 kts 50°
2026-05-06 13:21 52.22061 4.56145 2010 ft 146 kts 53°
2026-05-06 13:22 52.22620 4.57502 2012 ft 143 kts 54°
2026-05-06 13:22 52.23162 4.58863 2000 ft 144 kts 55°
2026-05-06 13:22 52.23696 4.60222 1909 ft 144 kts 56°
2026-05-06 13:22 52.24227 4.61589 1743 ft 137 kts 55°
2026-05-06 13:23 52.24725 4.62874 1569 ft 136 kts 56°
2026-05-06 13:23 52.25225 4.64164 1395 ft 134 kts 56°
2026-05-06 13:23 52.25719 4.65441 1233 ft 131 kts 56°
2026-05-06 13:23 52.26200 4.66725 1074 ft 131 kts 55°
2026-05-06 13:24 52.26704 4.67983 833 ft 130 kts 55°
2026-05-06 13:24 52.27183 4.69242 646 ft 131 kts 57°
2026-05-06 13:24 52.27674 4.70506 479 ft 133 kts 57°
2026-05-06 13:24 52.28158 4.71763 322 ft 131 kts 58°
2026-05-06 13:25 52.28643 4.73009 147 ft 129 kts 60°
2026-05-06 13:25 52.29119 4.74264 9 ft 127 kts 60°
2026-05-06 13:25 52.29520 4.75307 -3 ft 77 kts 58°
2026-05-06 13:25 52.29697 4.75727 -4 ft 36 kts 39°
2026-05-06 13:26 52.29888 4.75892 -5 ft 3 kts 27°
2026-05-06 13:28 52.29889 4.75893 -5 ft 1 kts 27°
2026-05-06 13:28 52.29907 4.75908 -5 ft 6 kts 27°
2026-05-06 13:29 52.29977 4.75973 -4 ft 13 kts 39°
2026-05-06 13:29 52.30037 4.76102 -5 ft 16 kts 57°
2026-05-06 13:29 52.30098 4.76260 -3 ft 16 kts 51°
2026-05-06 13:29 52.30195 4.76276 -1 ft 14 kts 27°
2026-05-06 13:30 52.30256 4.76417 -1 ft 16 kts 57°
2026-05-06 13:30 52.30303 4.76527 -1 ft 7 kts 32°
2026-05-06 13:30 52.30362 4.76513 -1 ft 10 kts 335°
2026-05-06 13:30 52.30397 4.76447 -2 ft 6 kts 270°
2026-05-06 13:31 52.30382 4.76409 -1 ft 3 kts 234°